Simultaneous Nadir Overpasses (SNOs) Predictions

Prediction of SNOs between GOES-17 and AQUA Satellite Orbit:

Table of predicted SNOs for the next 14.0 days since TLE Epoch: 8/22/2025
Index Date Time (GOES-17) GOES-17 Lat,Lon AQUA Lat,Lon Distance(km) Time Diff (sec)
1 08/24/2025 08:33:26 -0.19, -89.47 -0.89, -86.11 381.39 80
2 08/24/2025 20:52:40 0.19, -89.51 -0.10, -90.76 143.62 80
3 08/26/2025 20:34:49 0.19, -89.52 1.00, -85.74 429.49 80
4 08/27/2025 08:53:55 -0.19, -89.49 -0.01, -90.36 98.64 80
5 08/29/2025 08:30:43 -0.19, -89.50 -1.09, -85.33 474.59 80
6 08/29/2025 20:49:58 0.19, -89.54 0.11, -89.98 50.43 80
7 09/01/2025 08:51:11 -0.20, -89.52 -0.18, -89.56 4.54 80
8 09/03/2025 20:49:53 0.20, -89.57 0.30, -89.18 44.18 80
9 09/04/2025 09:08:57 -0.20, -89.55 0.73, -93.79 482.76 80
